This is the latest recevied weather packets stored in our database for station/object 9A7DI-13. If no packets are shown the sender has not sent any weather packets the latest 10 day(s).
| Time | Temp. | Humidity | Pressure | Rain* | Wind** | Luminosity | Snow |
|---|---|---|---|---|---|---|---|
| 1777200444 | 23.89° C | 23% | 1027.3 hPa | - | - | - | - |
| 1777199844 | 24.44° C | 23% | 1027.2 hPa | - | - | - | - |
| 1777199244 | 23.89° C | 23% | 1027.3 hPa | - | - | - | - |
| 1777198644 | 23.89° C | 22% | 1027.3 hPa | - | - | - | - |
| 1777198044 | 24.44° C | 22% | 1027.3 hPa | - | - | - | - |
| 1777197444 | 24.44° C | 22% | 1027.3 hPa | - | - | - | - |
| 1777196844 | 24.44° C | 23% | 1027.2 hPa | - | - | - | - |
| 1777196244 | 24.44° C | 23% | 1027.3 hPa | - | - | - | - |
| 1777195644 | 24.44° C | 23% | 1027.2 hPa | - | - | - | - |
| 1777195044 | 23.89° C | 24% | 1027.1 hPa | - | - | - | - |
| 1777194444 | 24.44° C | 23% | 1027 hPa | - | - | - | - |
| 1777193844 | 23.89° C | 23% | 1027 hPa | - | - | - | - |
| 1777193244 | 23.89° C | 26% | 1026.9 hPa | - | - | - | - |
| 1777192644 | 24.44° C | 24% | 1026.9 hPa | - | - | - | - |
| 1777192044 | 23.33° C | 26% | 1026.9 hPa | - | - | - | - |
| 1777191445 | 23.33° C | 25% | 1026.9 hPa | - | - | - | - |
| 1777190844 | 22.78° C | 27% | 1026.8 hPa | - | - | - | - |
| 1777190244 | 22.78° C | 27% | 1026.8 hPa | - | - | - | - |
| 1777189644 | 22.22° C | 29% | 1026.6 hPa | - | - | - | - |
| 1777189044 | 21.67° C | 29% | 1026.6 hPa | - | - | - | - |
| 1777188445 | 21.11° C | 31% | 1026.5 hPa | - | - | - | - |
| 1777187844 | 21.11° C | 28% | 1026.4 hPa | - | - | - | - |
| 1777187245 | 21.11° C | 29% | 1026.2 hPa | - | - | - | - |
| 1777186644 | 20.56° C | 32% | 1026.1 hPa | - | - | - | - |
| 1777186044 | 20.56° C | 31% | 1025.9 hPa | - | - | - | - |
* Rain since midnight (hover to see other rain measurements)
** Current wind speed in m/s (hover to see current wind gust speed)